Location: Unspecified
(42.3650°N, 71.1030°W)
Time: 16:58:28
(UTC+00:00)

Tiros 1 - Pass Details

Date: 30 June 2024
Orbit: 624 x 656 km, 48.4° (Epoch: 13 July)

Event Time Altitude Azimuth Distance (km) Brightness Sun altitude
Rises 23:57:04 0° 184° (S) 2,894 10.3 3.7°
Reaches altitude 10° 00:00:45 10° 154° (SSE) 1,988 9.2 3.1°
Maximum altitude 00:02:32 12° 131° (SE) 1,849 8.9 2.8°
Drops below altitude 10° 00:04:20 10° 108° (ESE) 1,991 9.1 2.5°
Sets 00:08:00 0° 78° (ENE) 2,902 10.1 1.9°
